Weather History for PHOG - June, 2014

Change the Weather History Date:

Sunday, June 8, 2014

  Actual Average Record
Temperature  
Mean Temperature 80 °F 78 °F  
Max Temperature 88 °F 86 °F 91 °F (1996)
Min Temperature 72 °F 69 °F 61 °F (1953)
Degree Days  
Heating Degree Days 0 0  
Month to date heating degree days 0 0  
Since 1 June heating degree days 0 0  
Since 1 July heating degree days 0 0  
Cooling Degree Days 15 13  
Month to date cooling degree days 107 98  
Year to date cooling degree days 1603 1357  
Since 1 June cooling degree days 107 98  
Growing Degree Days 30 (Base 50)    
Moisture  
Dew Point 64 °F    
Average Humidity 56    
Maximum Humidity 73    
Minimum Humidity 39    
Precipitation  
Precipitation 0.00 in 0.00 in 0.08 in (1961)
Month to date precipitation 0.02 0.05  
Year to date precipitation 13.98 9.55  
Snow  
Snow 0.00 in - - ()
Month to date snowfall 0.0  
Since 1 June snowfall 0.0  
Since 1 July snowfall 0.0  
Snow Depth 0.00 in    
Sea Level Pressure  
Sea Level Pressure 30.00 in    
Wind  
Wind Speed 14 mph (ENE)    
Max Wind Speed 25 mph    
Max Gust Speed 33 mph    
Visibility 10 miles    
Events      
T = Trace of Precipitation, MM = Missing Value Source: NWS Daily Summary

Daily Weather History Graph

Daily Weather History Graph

Search for Another Location

Airport or City:

Trip Planner

Search our weather history database for the weather conditions in past years. The results will help you decide how hot, cold, wet, or windy it might be!

Date:

Astronomy

Jun. 08, 2014 Rise Set
Actual Time 5:43 AM HST 7:06 PM HST
Civil Twilight 5:19 AM HST 7:30 PM HST
Nautical Twilight 4:49 AM HST 8:00 PM HST
Astronomical Twilight 4:19 AM HST 8:30 PM HST
Moon 3:03 PM HST (6/8) 2:10 AM HST (6/8)
Length of Visible Light 14h 11m
Length of Day
13h 22m
Waxing Gibbous, 79% of the Moon is Illuminated
Jun 8
Waxing Gibbous
Jun 12
Full
Jun 19
Last Quarter
Jun 26
New
Jul 5
First Quarter

Hourly Weather History & Observations

Time (HST) Temp. Heat Index Dew Point Humidity Pressure Visibility Wind Dir Wind Speed Gust Speed Precip Events Conditions
12:54 AM 73.9 °F - 64.0 °F 71% 30.01 in 10.0 mi NE 13.8 mph - N/A   Partly Cloudy
1:54 AM 73.0 °F - 62.1 °F 68% 29.99 in 10.0 mi ENE 9.2 mph - N/A   Clear
2:54 AM 73.0 °F - 63.0 °F 71% 29.99 in 10.0 mi East 13.8 mph 23.0 mph N/A   Mostly Cloudy
3:54 AM 73.0 °F - 64.0 °F 73% 30.00 in 10.0 mi East 9.2 mph 19.6 mph N/A   Mostly Cloudy
4:54 AM 73.9 °F - 64.0 °F 71% 30.00 in 10.0 mi ENE 11.5 mph 17.3 mph N/A   Overcast
5:54 AM 73.9 °F - 64.0 °F 71% 30.01 in 10.0 mi ENE 9.2 mph 17.3 mph N/A   Scattered Clouds
6:54 AM 75.9 °F - 64.0 °F 67% 30.03 in 10.0 mi ENE 8.1 mph - N/A   Scattered Clouds
7:54 AM 80.1 °F 82.1 °F 66.0 °F 62% 30.04 in 10.0 mi NE 12.7 mph - N/A   Scattered Clouds
8:54 AM 81.0 °F 82.7 °F 64.9 °F 58% 30.05 in 10.0 mi NE 16.1 mph - N/A   Partly Cloudy
9:54 AM 82.0 °F 83.8 °F 64.9 °F 56% 30.04 in 10.0 mi ENE 20.7 mph 26.5 mph N/A   Scattered Clouds
10:54 AM 84.9 °F 85.9 °F 63.0 °F 48% 30.03 in 10.0 mi ENE 18.4 mph 26.5 mph N/A   Scattered Clouds
11:54 AM 87.1 °F 86.5 °F 59.0 °F 39% 30.01 in 10.0 mi NE 20.7 mph 27.6 mph N/A   Scattered Clouds
12:54 PM 87.1 °F 87.5 °F 62.1 °F 43% 30.00 in 10.0 mi ENE 16.1 mph 28.8 mph N/A   Scattered Clouds
1:54 PM 86.0 °F 87.3 °F 64.0 °F 48% 29.99 in 10.0 mi NE 19.6 mph 29.9 mph N/A   Scattered Clouds
2:54 PM 82.9 °F 85.0 °F 66.0 °F 56% 29.97 in 10.0 mi NE 21.9 mph - N/A   Scattered Clouds
3:54 PM 82.0 °F 83.8 °F 64.9 °F 56% 29.96 in 10.0 mi ENE 19.6 mph 25.3 mph N/A   Mostly Cloudy
4:54 PM 82.0 °F 83.4 °F 64.0 °F 54% 29.95 in 10.0 mi NE 20.7 mph 27.6 mph N/A   Scattered Clouds
5:54 PM 79.0 °F - 64.0 °F 60% 29.95 in 10.0 mi ENE 18.4 mph 31.1 mph N/A   Clear
6:54 PM 77.0 °F - 64.9 °F 66% 29.98 in 10.0 mi East 18.4 mph 27.6 mph N/A   Mostly Cloudy
7:14 PM 77.0 °F - 62.6 °F 61% 29.97 in 10.0 mi East 17.3 mph 24.2 mph N/A   Mostly Cloudy
7:54 PM 75.9 °F - 64.9 °F 69% 30.00 in 10.0 mi NE 18.4 mph 27.6 mph N/A   Mostly Cloudy
8:54 PM 75.9 °F - 64.0 °F 67% 30.02 in 10.0 mi ENE 19.6 mph 26.5 mph N/A   Scattered Clouds
9:54 PM 73.9 °F - 64.9 °F 73% 30.03 in 10.0 mi NE 16.1 mph - N/A   Clear
10:54 PM 73.9 °F - 64.9 °F 73% 30.02 in 10.0 mi ENE 10.4 mph - N/A   Clear
11:54 PM 73.9 °F - 64.9 °F 73% 30.02 in 10.0 mi ESE 4.6 mph - N/A   Partly Cloudy